Home > Weather > Pierre > Past weeks

Flag for U.S.A. Weather for the Past 2 Weeks in Pierre, South Dakota, U.S.A.

Now
14 °F

Overcast.


Feels Like: 0 °F
Forecast: 11 / 29 °F
Wind: 13 mph from Southeast

Location: Pierre Regional Airport

Current Time: Feb 13, 2016 at 7:24:14 AM

Latest Report: Feb 13, 2016 at 7:02 AM


Visibility: 10 mi

Pressure: 30.30 "Hg

Humidity: 80%

Dew point: 9 °F

Location of PierreLocation

Historic Weather in Pierre — Graph

°F

Pierre Temperature Yesterday

Maximum temperature yesterday: 25 °F (at 12:53 AM)
Minimum temperature yesterday: 13 °F (at 7:53 PM)
Average temperature yesterday: 19 °F

High & Low Weather Summary for the Past Weeks

 TemperatureHumidityPressure
High49 °F (Feb 6, 2:53 PM)100% (Jan 29, 6:53 AM)30.64 "Hg (Jan 29, 6:53 AM)
Low11 °F (Feb 3, 7:53 AM)42% (Feb 7, 5:53 PM)29.47 "Hg (Jan 30, 6:53 AM)
Average29 °F74%30.07 "Hg
* Reported Jan 29 5:53 AM — Feb 13 5:53 AM, Pierre, Weather by CustomWeather, © 2016

Note: Actual official high and low records may vary slightly from our data, if they occured in-between our weather recording intervals... More about our weather records

Advertising

Pierre Weather History for the Previous 24 Hours

 ConditionsComfort  
Time TempWeatherWind HumidityBarometerVisibility
5:53 AM
Sat, Feb 13
13 °FMostly cloudy.23 mph77%30.39 "Hg10 mi
4:53 AM12 °FOvercast.15 mph77%30.43 "Hg10 mi
3:53 AM11 °FOvercast.17 mph73%30.47 "Hg10 mi
2:53 AM11 °FOvercast.18 mph81%30.51 "Hg10 mi
1:53 AM11 °FOvercast.18 mph81%30.53 "Hg10 mi
12:53 AM12 °FMostly cloudy.18 mph77%30.55 "Hg10 mi
11:53 PM
Fri, Feb 12
13 °FOvercast.14 mph70%30.58 "Hg10 mi
10:53 PM13 °FOvercast.17 mph70%30.60 "Hg10 mi
9:53 PM13 °FMostly cloudy.12 mph77%30.61 "Hg10 mi
8:53 PM13 °FMostly cloudy.16 mph77%30.61 "Hg10 mi
7:53 PM13 °FOvercast.14 mph74%30.63 "Hg10 mi
6:53 PM15 °FOvercast.13 mph70%30.64 "Hg10 mi
5:53 PM17 °FOvercast.13 mph70%30.62 "Hg10 mi
4:53 PM20 °FOvercast.10 mph65%30.60 "Hg10 mi
3:53 PM21 °FMostly cloudy.8 mph62%30.59 "Hg10 mi
2:53 PM22 °FMostly cloudy.7 mph62%30.59 "Hg10 mi
1:53 PM22 °FMostly cloudy.7 mph68%30.60 "Hg10 mi
12:53 PM22 °FOvercast.9 mph66%30.61 "Hg10 mi
11:53 AM22 °FMostly cloudy.9 mph72%30.61 "Hg10 mi
10:53 AM21 °FLight snow. Mostly cloudy.9 mph78%30.60 "Hg4 mi
9:53 AM21 °FOvercast.9 mph74%30.58 "Hg10 mi
8:53 AM21 °FOvercast.10 mph74%30.56 "Hg10 mi
7:53 AM21 °FOvercast.8 mph74%30.53 "Hg10 mi
Weather by CustomWeather, © 2016

See weather overviewHow to use our weather pages